Time,TemperatureF,DewpointF,PressureIn,WindDirection,WindDirectionDegrees,WindSpeedMPH,WindSpeedGustMPH,Humidity,HourlyPrecipIn,Conditions,Clouds,dailyrainin,SoftwareType,DateUTC
2013-02-13 00:13:00,40.8,33.0,30.26,ESE,110,0.0,1.0,75,0.00,,,0.00,weatherlink.com 1.10,2013-02-13 08:13:00,
2013-02-13 00:28:00,40.9,34.0,30.26,ESE,110,0.0,0.0,76,0.00,,,0.00,weatherlink.com 1.10,2013-02-13 08:28:00,
2013-02-13 00:43:00,40.9,35.0,30.26,ESE,110,0.0,1.0,78,0.00,,,0.00,weatherlink.com 1.10,2013-02-13 08:43:00,
2013-02-13 00:58:00,40.5,34.0,30.26,ESE,110,0.0,0.0,79,0.00,,,0.00,weatherlink.com 1.10,2013-02-13 08:58:00,
2013-02-13 01:13:00,40.8,35.0,30.25,ESE,110,0.0,1.0,79,0.00,,,0.00,weatherlink.com 1.10,2013-02-13 09:13:00,
2013-02-13 01:28:00,40.5,34.0,30.25,ESE,117,0.0,0.0,78,0.00,,,0.00,weatherlink.com 1.10,2013-02-13 09:28:00,
2013-02-13 01:43:00,39.4,34.0,30.25,ESE,117,0.0,0.0,81,0.00,,,0.00,weatherlink.com 1.10,2013-02-13 09:43:00,
2013-02-13 01:58:00,39.0,34.0,30.24,ESE,117,0.0,0.0,81,0.00,,,0.00,weatherlink.com 1.10,2013-02-13 09:58:00,
2013-02-13 02:13:00,38.5,33.0,30.24,ESE,117,1.0,1.0,82,0.00,,,0.00,weatherlink.com 1.10,2013-02-13 10:13:00,
2013-02-13 02:28:00,38.4,33.0,30.24,ESE,117,0.0,1.0,82,0.00,,,0.00,weatherlink.com 1.10,2013-02-13 10:28:00,
2013-02-13 02:43:00,37.7,33.0,30.24,ESE,117,0.0,0.0,84,0.00,,,0.00,weatherlink.com 1.10,2013-02-13 10:43:00,
2013-02-13 02:58:00,37.5,33.0,30.24,ESE,117,0.0,0.0,85,0.00,,,0.00,weatherlink.com 1.10,2013-02-13 10:58:00,
2013-02-13 03:14:00,37.8,33.0,30.24,ESE,117,0.0,1.0,84,0.00,,,0.00,weatherlink.com 1.10,2013-02-13 11:14:00,
2013-02-13 03:29:00,37.8,33.0,30.24,NE,43,0.0,1.0,82,0.00,,,0.00,weatherlink.com 1.10,2013-02-13 11:29:00,
2013-02-13 03:44:00,37.2,33.0,30.24,North,11,0.0,1.0,85,0.00,,,0.00,weatherlink.com 1.10,2013-02-13 11:44:00,
2013-02-13 03:59:00,37.5,33.0,30.23,NE,41,2.0,2.0,85,0.00,,,0.00,weatherlink.com 1.10,2013-02-13 11:59:00,
2013-02-13 04:14:00,38.1,33.0,30.23,ESE,105,0.0,2.0,83,0.00,,,0.00,weatherlink.com 1.10,2013-02-13 12:14:00,
2013-02-13 04:29:00,38.6,33.0,30.23,ESE,119,0.0,1.0,81,0.00,,,0.00,weatherlink.com 1.10,2013-02-13 12:29:00,
2013-02-13 04:44:00,38.9,34.0,30.23,ESE,117,0.0,1.0,81,0.00,,,0.00,weatherlink.com 1.10,2013-02-13 12:44:00,
2013-02-13 04:59:00,39.0,34.0,30.23,ESE,108,0.0,1.0,81,0.00,,,0.00,weatherlink.com 1.10,2013-02-13 12:59:00,
2013-02-13 05:14:00,38.9,34.0,30.23,WNW,298,0.0,1.0,81,0.00,,,0.00,weatherlink.com 1.10,2013-02-13 13:14:00,
2013-02-13 05:29:00,38.1,33.0,30.23,WNW,298,0.0,0.0,81,0.00,,,0.00,weatherlink.com 1.10,2013-02-13 13:29:00,
2013-02-13 05:44:00,37.7,33.0,30.23,WNW,298,0.0,0.0,82,0.00,,,0.00,weatherlink.com 1.10,2013-02-13 13:44:00,
2013-02-13 05:59:00,37.9,33.0,30.23,SSE,150,0.0,1.0,83,0.00,,,0.00,weatherlink.com 1.10,2013-02-13 13:59:00,
2013-02-13 06:14:00,38.5,33.0,30.23,SSE,160,0.0,1.0,82,0.00,,,0.00,weatherlink.com 1.10,2013-02-13 14:14:00,
2013-02-13 06:29:00,38.9,33.0,30.24,WSW,247,0.0,1.0,79,0.00,,,0.00,weatherlink.com 1.10,2013-02-13 14:29:00,
2013-02-13 06:44:00,37.9,33.0,30.24,NNW,339,0.0,0.0,81,0.00,,,0.00,weatherlink.com 1.10,2013-02-13 14:44:00,
2013-02-13 06:59:00,38.1,33.0,30.24,NNE,19,0.0,0.0,82,0.00,,,0.00,weatherlink.com 1.10,2013-02-13 14:59:00,
2013-02-13 07:14:00,38.6,33.0,30.25,East,89,1.0,1.0,80,0.00,,,0.00,weatherlink.com 1.10,2013-02-13 15:14:00,
2013-02-13 07:29:00,39.2,33.0,30.25,NNW,329,0.0,1.0,79,0.00,,,0.00,weatherlink.com 1.10,2013-02-13 15:29:00,
2013-02-13 07:44:00,39.7,33.0,30.26,East,94,0.0,1.0,78,0.00,,,0.00,weatherlink.com 1.10,2013-02-13 15:44:00,
2013-02-13 07:59:00,41.4,34.0,30.26,North,355,0.0,1.0,75,0.00,,,0.00,weatherlink.com 1.10,2013-02-13 15:59:00,
2013-02-13 08:14:00,43.7,36.0,30.26,WNW,290,1.0,1.0,74,0.00,,,0.00,weatherlink.com 1.10,2013-02-13 16:14:00,
2013-02-13 08:29:00,47.3,38.0,30.26,West,280,0.0,1.0,69,0.00,,,0.00,weatherlink.com 1.10,2013-02-13 16:29:00,
2013-02-13 08:45:00,49.6,38.0,30.26,West,275,0.0,3.0,64,0.00,,,0.00,weatherlink.com 1.10,2013-02-13 16:45:00,
2013-02-13 08:59:00,53.2,39.0,30.26,SSE,151,0.0,1.0,60,0.00,,,0.00,weatherlink.com 1.10,2013-02-13 16:59:00,
2013-02-13 09:15:00,54.8,41.0,30.26,WNW,298,0.0,2.0,59,0.00,,,0.00,weatherlink.com 1.10,2013-02-13 17:15:00,
2013-02-13 09:30:00,57.4,37.0,30.26,East,81,0.0,4.0,46,0.00,,,0.00,weatherlink.com 1.10,2013-02-13 17:30:00,
2013-02-13 09:45:00,58.5,38.0,30.25,NNW,330,0.0,4.0,47,0.00,,,0.00,weatherlink.com 1.10,2013-02-13 17:45:00,
2013-02-13 10:00:00,59.9,36.0,30.25,WNW,299,0.0,3.0,41,0.00,,,0.00,weatherlink.com 1.10,2013-02-13 18:00:00,
2013-02-13 10:15:00,61.9,29.0,30.25,NNE,12,1.0,3.0,29,0.00,,,0.00,weatherlink.com 1.10,2013-02-13 18:15:00,
2013-02-13 10:30:00,63.2,30.0,30.25,NNE,13,1.0,4.0,29,0.00,,,0.00,weatherlink.com 1.10,2013-02-13 18:30:00,
2013-02-13 10:45:00,64.1,30.0,30.24,NE,37,1.0,4.0,28,0.00,,,0.00,weatherlink.com 1.10,2013-02-13 18:45:00,
2013-02-13 11:01:00,65.6,27.0,30.23,NW,310,5.0,7.0,23,0.00,,,0.00,weatherlink.com 1.10,2013-02-13 19:01:00,
2013-02-13 11:16:00,65.3,25.0,30.23,West,276,1.0,8.0,22,0.00,,,0.00,weatherlink.com 1.10,2013-02-13 19:16:00,
2013-02-13 11:31:00,66.9,27.0,30.22,North,352,2.0,4.0,22,0.00,,,0.00,weatherlink.com 1.10,2013-02-13 19:31:00,
2013-02-13 11:46:00,67.5,28.0,30.21,SE,142,1.0,3.0,23,0.00,,,0.00,weatherlink.com 1.10,2013-02-13 19:46:00,
2013-02-13 12:01:00,69.0,30.0,30.20,NNE,20,1.0,3.0,23,0.00,,,0.00,weatherlink.com 1.10,2013-02-13 20:01:00,
2013-02-13 12:16:00,68.8,28.0,30.19,SW,214,0.0,5.0,22,0.00,,,0.00,weatherlink.com 1.10,2013-02-13 20:16:00,
2013-02-13 12:31:00,69.8,28.0,30.18,ESE,104,1.0,6.0,21,0.00,,,0.00,weatherlink.com 1.10,2013-02-13 20:31:00,
2013-02-13 12:46:00,70.0,26.0,30.17,NW,314,5.0,9.0,19,0.00,,,0.00,weatherlink.com 1.10,2013-02-13 20:46:00,
2013-02-13 13:01:00,70.1,25.0,30.16,NW,316,4.0,12.0,18,0.00,,,0.00,weatherlink.com 1.10,2013-02-13 21:01:00,
2013-02-13 13:16:00,70.0,31.0,30.16,WNW,302,5.0,9.0,24,0.00,,,0.00,weatherlink.com 1.10,2013-02-13 21:16:00,
2013-02-13 13:32:00,69.2,31.0,30.15,WSW,239,0.0,9.0,24,0.00,,,0.00,weatherlink.com 1.10,2013-02-13 21:32:00,
2013-02-13 13:47:00,69.1,31.0,30.15,NW,309,7.0,9.0,24,0.00,,,0.00,weatherlink.com 1.10,2013-02-13 21:47:00,
2013-02-13 14:01:00,69.3,31.0,30.15,NW,321,3.0,7.0,24,0.00,,,0.00,weatherlink.com 1.10,2013-02-13 22:01:00,
2013-02-13 14:17:00,69.2,31.0,30.14,NW,322,2.0,6.0,24,0.00,,,0.00,weatherlink.com 1.10,2013-02-13 22:17:00,
2013-02-13 14:32:00,69.0,26.0,30.14,NW,308,6.0,9.0,20,0.00,,,0.00,weatherlink.com 1.10,2013-02-13 22:32:00,
2013-02-13 14:47:00,69.0,28.0,30.13,NNW,332,1.0,8.0,22,0.00,,,0.00,weatherlink.com 1.10,2013-02-13 22:47:00,
2013-02-13 15:02:00,69.1,33.0,30.13,NNW,332,1.0,6.0,26,0.00,,,0.00,weatherlink.com 1.10,2013-02-13 23:02:00,
2013-02-13 15:17:00,69.2,35.0,30.13,West,269,1.0,6.0,28,0.00,,,0.00,weatherlink.com 1.10,2013-02-13 23:17:00,
2013-02-13 15:32:00,68.4,35.0,30.12,SSE,161,0.0,9.0,29,0.00,,,0.00,weatherlink.com 1.10,2013-02-13 23:32:00,
2013-02-13 15:47:00,68.2,36.0,30.12,SW,215,0.0,5.0,30,0.00,,,0.00,weatherlink.com 1.10,2013-02-13 23:47:00,
2013-02-13 16:02:00,67.8,34.0,30.12,SW,232,3.0,6.0,29,0.00,,,0.00,weatherlink.com 1.10,2013-02-14 00:02:00,
2013-02-13 16:17:00,67.4,36.0,30.12,NW,313,2.0,3.0,31,0.00,,,0.00,weatherlink.com 1.10,2013-02-14 00:17:00,
2013-02-13 16:34:00,66.0,35.0,30.12,West,268,3.0,5.0,32,0.00,,,0.00,weatherlink.com 1.10,2013-02-14 00:34:00,
2013-02-13 16:49:00,65.1,35.0,30.12,West,281,1.0,5.0,33,0.00,,,0.00,weatherlink.com 1.10,2013-02-14 00:49:00,
2013-02-13 17:02:00,63.7,35.0,30.13,West,267,1.0,3.0,34,0.00,,,0.00,weatherlink.com 1.10,2013-02-14 01:02:00,
2013-02-13 17:19:00,62.1,33.0,30.13,NW,319,0.0,5.0,34,0.00,,,0.00,weatherlink.com 1.10,2013-02-14 01:19:00,
2013-02-13 17:34:00,60.4,34.0,30.13,NW,312,0.0,0.0,38,0.00,,,0.00,weatherlink.com 1.10,2013-02-14 01:34:00,
2013-02-13 17:49:00,57.4,35.0,30.14,ESE,120,0.0,1.0,44,0.00,,,0.00,weatherlink.com 1.10,2013-02-14 01:49:00,
2013-02-13 18:04:00,55.0,36.0,30.14,ESE,120,0.0,0.0,49,0.00,,,0.00,weatherlink.com 1.10,2013-02-14 02:04:00,
2013-02-13 18:19:00,53.4,36.0,30.14,ESE,120,0.0,1.0,53,0.00,,,0.00,weatherlink.com 1.10,2013-02-14 02:19:00,
2013-02-13 18:34:00,53.5,36.0,30.14,ESE,120,0.0,1.0,52,0.00,,,0.00,weatherlink.com 1.10,2013-02-14 02:34:00,
2013-02-13 18:49:00,52.4,37.0,30.15,ESE,120,0.0,1.0,56,0.00,,,0.00,weatherlink.com 1.10,2013-02-14 02:49:00,
2013-02-13 19:04:00,51.3,38.0,30.15,ESE,120,0.0,1.0,60,0.00,,,0.00,weatherlink.com 1.10,2013-02-14 03:04:00,
2013-02-13 19:19:00,50.8,38.0,30.15,ESE,120,0.0,1.0,61,0.00,,,0.00,weatherlink.com 1.10,2013-02-14 03:19:00,
2013-02-13 19:34:00,49.7,38.0,30.15,ESE,119,0.0,0.0,64,0.00,,,0.00,weatherlink.com 1.10,2013-02-14 03:34:00,
2013-02-13 19:49:00,49.3,38.0,30.16,ESE,120,0.0,1.0,65,0.00,,,0.00,weatherlink.com 1.10,2013-02-14 03:49:00,
2013-02-13 20:04:00,49.1,38.0,30.16,ESE,103,0.0,0.0,65,0.00,,,0.00,weatherlink.com 1.10,2013-02-14 04:04:00,
2013-02-13 20:20:00,48.6,38.0,30.16,East,101,0.0,0.0,66,0.00,,,0.00,weatherlink.com 1.10,2013-02-14 04:20:00,
2013-02-13 21:04:00,47.0,38.0,30.17,ESE,103,0.0,0.0,71,0.00,,,0.00,weatherlink.com 1.10,2013-02-14 05:04:00,
2013-02-13 21:19:00,46.7,38.0,30.17,ESE,103,0.0,1.0,73,0.00,,,0.00,weatherlink.com 1.10,2013-02-14 05:19:00,
2013-02-13 21:34:00,46.5,38.0,30.17,ESE,102,0.0,1.0,72,0.00,,,0.00,weatherlink.com 1.10,2013-02-14 05:34:00,
2013-02-13 21:49:00,46.7,38.0,30.17,ESE,109,0.0,1.0,72,0.00,,,0.00,weatherlink.com 1.10,2013-02-14 05:49:00,
2013-02-13 22:04:00,46.4,38.0,30.17,ESE,107,0.0,1.0,72,0.00,,,0.00,weatherlink.com 1.10,2013-02-14 06:04:00,
2013-02-13 22:19:00,46.0,38.0,30.17,ESE,107,0.0,1.0,74,0.00,,,0.00,weatherlink.com 1.10,2013-02-14 06:19:00,
2013-02-13 22:34:00,45.7,37.0,30.17,ESE,107,0.0,1.0,73,0.00,,,0.00,weatherlink.com 1.10,2013-02-14 06:34:00,
2013-02-13 22:50:00,45.3,37.0,30.17,ESE,108,0.0,1.0,74,0.00,,,0.00,weatherlink.com 1.10,2013-02-14 06:50:00,
2013-02-13 23:05:00,44.9,38.0,30.17,ESE,107,0.0,1.0,76,0.00,,,0.00,weatherlink.com 1.10,2013-02-14 07:05:00,
2013-02-13 23:20:00,44.8,38.0,30.17,ESE,108,0.0,1.0,76,0.00,,,0.00,weatherlink.com 1.10,2013-02-14 07:20:00,
2013-02-13 23:35:00,45.1,38.0,30.17,ESE,107,0.0,1.0,76,0.00,,,0.00,weatherlink.com 1.10,2013-02-14 07:35:00,
2013-02-13 23:50:00,45.1,38.0,30.18,ESE,108,0.0,1.0,76,0.00,,,0.00,weatherlink.com 1.10,2013-02-14 07:50:00,